Regional Weather Roundup
Issued by NWS

Home | Current Version | Previous Version | Graphics & Text | Print | Product List | Glossary On
Versions: 1 2 3 4 5 6 7 8 9 10 11 12 13 14 15 16 17 18 19 20 21 22 23 24 25 26 27 28 29 30 31 32 33 34 35 36 37 38 39 40 41 42 43 44 45 46 47 48 49 50
000
ASUS43 KLMK 250202
RWRKY
KENTUCKY REGIONAL WEATHER ROUNDUP
NATIONAL WEATHER SERVICE LOUISVILLE KY
1000 PM EDT SAT SEP 24 2016

NOTE "FAIR" INDICATES FEW OR NO CLOUDS BELOW 12,000 FEET
WITH NO SIGNIFICANT WEATHER AND/OR OBSTRUCTIONS TO VISIBILITY.

KYZ001>023-026-027-061>063-070>075-250300-
WESTERN AND SOUTH CENTRAL KENTUCKY

CITY           SKY/WX    TMP DP  RH WIND       PRES   REMARKS
PADUCAH        CLEAR     75  68  78 SE5       30.03R
HENDERSON      CLEAR     72  64  78 CALM      30.04R
OWENSBORO      CLEAR    N/A N/A N/A CALM      30.06R
HOPKINSVILLE   CLEAR     78  66  66 CALM      30.06R
BOWLING GREEN  CLEAR     73  66  78 CALM      30.07R
GLASGOW        NOT AVBL
$$

KYZ024-025-028>034-038-045-046-053-250300-
NORTH CENTRAL KENTUCKY

CITY           SKY/WX    TMP DP  RH WIND       PRES   REMARKS
LOUISVILLE/SDF PTCLDY    81  66  60 E8        30.08R
LOUISVILLE/LOU CLEAR     80  67  64 NE7       30.09R
FORT KNOX      CLEAR     70  66  86 N5        30.07R
$$

KYZ035>037-039>044-047>052-055>060-089>105-250300-
NORTHEAST KENTUCKY

CITY           SKY/WX    TMP DP  RH WIND       PRES   REMARKS
LEXINGTON      CLEAR     76  65  68 NE9       30.11R
COVINGTON      PTCLDY    76  67  73 NE9       30.12R
FRANKFORT      CLEAR     78  66  66 NE3       30.10R
$$

KYZ054-064>069-076>088-106>120-250300-
SOUTHEAST KENTUCKY

CITY           SKY/WX    TMP DP  RH WIND       PRES   REMARKS
JACKSON        CLEAR     75  64  68 CALM      30.13R
LONDON         CLEAR     71  65  81 CALM      30.11R
SOMERSET       CLEAR     70  66  88 CALM      30.11R
MIDDLESBORO    CLEAR     69  65  86 CALM      30.12S
MONTICELLO     NOT AVBL
$$




USA.gov is the U.S. government's official web portal to all federal, state and local government web resources and services.